Location: Grajewo
(53.6469°N, 22.4559°E)
Time: 19:25:25
(UTC+01:00)

ISS - Visible Passes

Search period start: 22 February 2018 00:00
Search period end: 04 March 2018 00:00
Orbit: 402 x 407 km, 51.6° (Epoch: 23 February)

Date Brightness Start Highest point End Pass type
(mag) Time Alt. Az. Time Alt. Az. Time Alt. Az.
27 Feb -0.8 05:35:44 10° S 05:37:15 13° SE 05:38:46 10° ESE visible
01 Mar -1.5 05:26:15 10° SSW 05:28:47 21° SSE 05:31:21 10° E visible
02 Mar -1.1 04:34:48 10° S 04:36:41 15° SE 04:38:36 10° ESE visible
03 Mar -2.3 05:17:24 10° SW 05:20:22 32° SSE 05:23:21 10° E visible
